<?xml version="1.0"?>
<gpx xmlns="http://www.topografix.com/GPX/1/1" xmlns:xsi="http://www.w3.org/2001/XMLSchema-instance" version="1.1" creator="GPX RubyGem 1.0.0 -- http://dougfales.github.io/gpx/" xsi:schemaLocation="http://www.topografix.com/GPX/1/1 http://www.topografix.com/GPX/1/1/gpx.xsd">
  <metadata>
    <name/>
    <time>2026-05-10T00:35:33+00:00</time>
    <bound minlat="90.0" minlon="180.0" maxlat="-90.0" maxlon="-180.0"/>
  </metadata>
  <trk>
    <name/>
    <trkseg>
      <trkpt lat="43.532825" lon="3.932145">
        <time>1970-01-01T00:00:00+00:00</time>
        <ele>1.0</ele>
      </trkpt>
      <trkpt lat="43.532842" lon="3.932135">
        <time>1970-01-01T00:00:00+00:00</time>
        <ele>1.0</ele>
      </trkpt>
      <trkpt lat="43.532913" lon="3.932023">
        <time>1970-01-01T00:00:00+00:00</time>
        <ele>1.0</ele>
      </trkpt>
      <trkpt lat="43.532933" lon="3.931992">
        <time>1970-01-01T00:00:00+00:00</time>
        <ele>1.0</ele>
      </trkpt>
      <trkpt lat="43.533017" lon="3.931906">
        <time>1970-01-01T00:00:00+00:00</time>
        <ele>1.0</ele>
      </trkpt>
      <trkpt lat="43.5331" lon="3.931891">
        <time>1970-01-01T00:00:00+00:00</time>
        <ele>2.0</ele>
      </trkpt>
      <trkpt lat="43.533279" lon="3.931561">
        <time>1970-01-01T00:00:00+00:00</time>
        <ele>2.0</ele>
      </trkpt>
      <trkpt lat="43.53335" lon="3.931191">
        <time>1970-01-01T00:00:00+00:00</time>
        <ele>2.0</ele>
      </trkpt>
      <trkpt lat="43.533424" lon="3.930966">
        <time>1970-01-01T00:00:00+00:00</time>
        <ele>1.0</ele>
      </trkpt>
      <trkpt lat="43.533555" lon="3.930807">
        <time>1970-01-01T00:00:00+00:00</time>
        <ele>1.0</ele>
      </trkpt>
      <trkpt lat="43.533769" lon="3.930617">
        <time>1970-01-01T00:00:00+00:00</time>
        <ele>2.0</ele>
      </trkpt>
      <trkpt lat="43.533804" lon="3.930485">
        <time>1970-01-01T00:00:00+00:00</time>
        <ele>2.0</ele>
      </trkpt>
      <trkpt lat="43.533961" lon="3.930389">
        <time>1970-01-01T00:00:00+00:00</time>
        <ele>1.0</ele>
      </trkpt>
      <trkpt lat="43.534159" lon="3.930176">
        <time>1970-01-01T00:00:00+00:00</time>
        <ele>3.0</ele>
      </trkpt>
      <trkpt lat="43.534164" lon="3.930126">
        <time>1970-01-01T00:00:00+00:00</time>
        <ele>3.0</ele>
      </trkpt>
      <trkpt lat="43.534306" lon="3.930194">
        <time>1970-01-01T00:00:00+00:00</time>
        <ele>3.0</ele>
      </trkpt>
      <trkpt lat="43.534453" lon="3.9303">
        <time>1970-01-01T00:00:00+00:00</time>
        <ele>3.0</ele>
      </trkpt>
      <trkpt lat="43.534502" lon="3.93036">
        <time>1970-01-01T00:00:00+00:00</time>
        <ele>3.0</ele>
      </trkpt>
      <trkpt lat="43.534533" lon="3.930397">
        <time>1970-01-01T00:00:00+00:00</time>
        <ele>2.0</ele>
      </trkpt>
      <trkpt lat="43.534593" lon="3.930315">
        <time>1970-01-01T00:00:00+00:00</time>
        <ele>2.0</ele>
      </trkpt>
      <trkpt lat="43.534659" lon="3.930317">
        <time>1970-01-01T00:00:00+00:00</time>
        <ele>2.0</ele>
      </trkpt>
      <trkpt lat="43.534677" lon="3.930363">
        <time>1970-01-01T00:00:00+00:00</time>
        <ele>2.0</ele>
      </trkpt>
      <trkpt lat="43.534677" lon="3.930363">
        <time>1970-01-01T00:00:00+00:00</time>
        <ele>2.0</ele>
      </trkpt>
      <trkpt lat="43.534693" lon="3.930402">
        <time>1970-01-01T00:00:00+00:00</time>
        <ele>2.0</ele>
      </trkpt>
      <trkpt lat="43.534661" lon="3.930503">
        <time>1970-01-01T00:00:00+00:00</time>
        <ele>2.0</ele>
      </trkpt>
      <trkpt lat="43.534562" lon="3.930505">
        <time>1970-01-01T00:00:00+00:00</time>
        <ele>2.0</ele>
      </trkpt>
      <trkpt lat="43.534579" lon="3.930584">
        <time>1970-01-01T00:00:00+00:00</time>
        <ele>2.0</ele>
      </trkpt>
      <trkpt lat="43.534639" lon="3.93075">
        <time>1970-01-01T00:00:00+00:00</time>
        <ele>2.0</ele>
      </trkpt>
      <trkpt lat="43.534709" lon="3.930798">
        <time>1970-01-01T00:00:00+00:00</time>
        <ele>2.0</ele>
      </trkpt>
      <trkpt lat="43.53486" lon="3.93099">
        <time>1970-01-01T00:00:00+00:00</time>
        <ele>1.0</ele>
      </trkpt>
      <trkpt lat="43.534796" lon="3.931175">
        <time>1970-01-01T00:00:00+00:00</time>
        <ele>0.0</ele>
      </trkpt>
      <trkpt lat="43.534696" lon="3.931332">
        <time>1970-01-01T00:00:00+00:00</time>
        <ele>0.0</ele>
      </trkpt>
      <trkpt lat="43.534553" lon="3.931641">
        <time>1970-01-01T00:00:00+00:00</time>
        <ele>1.0</ele>
      </trkpt>
      <trkpt lat="43.534472" lon="3.93178">
        <time>1970-01-01T00:00:00+00:00</time>
        <ele>1.0</ele>
      </trkpt>
      <trkpt lat="43.534127" lon="3.931804">
        <time>1970-01-01T00:00:00+00:00</time>
        <ele>2.0</ele>
      </trkpt>
      <trkpt lat="43.533993" lon="3.931755">
        <time>1970-01-01T00:00:00+00:00</time>
        <ele>2.0</ele>
      </trkpt>
      <trkpt lat="43.533956" lon="3.931715">
        <time>1970-01-01T00:00:00+00:00</time>
        <ele>2.0</ele>
      </trkpt>
      <trkpt lat="43.533927" lon="3.931776">
        <time>1970-01-01T00:00:00+00:00</time>
        <ele>2.0</ele>
      </trkpt>
      <trkpt lat="43.533753" lon="3.931751">
        <time>1970-01-01T00:00:00+00:00</time>
        <ele>2.0</ele>
      </trkpt>
      <trkpt lat="43.533485" lon="3.931817">
        <time>1970-01-01T00:00:00+00:00</time>
        <ele>2.0</ele>
      </trkpt>
      <trkpt lat="43.533398" lon="3.931808">
        <time>1970-01-01T00:00:00+00:00</time>
        <ele>2.0</ele>
      </trkpt>
      <trkpt lat="43.533357" lon="3.93187">
        <time>1970-01-01T00:00:00+00:00</time>
        <ele>2.0</ele>
      </trkpt>
      <trkpt lat="43.533331" lon="3.931985">
        <time>1970-01-01T00:00:00+00:00</time>
        <ele>2.0</ele>
      </trkpt>
      <trkpt lat="43.533326" lon="3.932025">
        <time>1970-01-01T00:00:00+00:00</time>
        <ele>2.0</ele>
      </trkpt>
      <trkpt lat="43.53329" lon="3.932004">
        <time>1970-01-01T00:00:00+00:00</time>
        <ele>2.0</ele>
      </trkpt>
      <trkpt lat="43.533164" lon="3.931925">
        <time>1970-01-01T00:00:00+00:00</time>
        <ele>2.0</ele>
      </trkpt>
      <trkpt lat="43.533132" lon="3.931908">
        <time>1970-01-01T00:00:00+00:00</time>
        <ele>2.0</ele>
      </trkpt>
      <trkpt lat="43.5331" lon="3.931891">
        <time>1970-01-01T00:00:00+00:00</time>
        <ele>2.0</ele>
      </trkpt>
      <trkpt lat="43.533017" lon="3.931906">
        <time>1970-01-01T00:00:00+00:00</time>
        <ele>1.0</ele>
      </trkpt>
      <trkpt lat="43.532933" lon="3.931992">
        <time>1970-01-01T00:00:00+00:00</time>
        <ele>1.0</ele>
      </trkpt>
      <trkpt lat="43.532913" lon="3.932023">
        <time>1970-01-01T00:00:00+00:00</time>
        <ele>1.0</ele>
      </trkpt>
      <trkpt lat="43.532842" lon="3.932135">
        <time>1970-01-01T00:00:00+00:00</time>
        <ele>1.0</ele>
      </trkpt>
      <trkpt lat="43.532825" lon="3.932145">
        <time>1970-01-01T00:00:00+00:00</time>
        <ele>1.0</ele>
      </trkpt>
    </trkseg>
  </trk>
</gpx>
